Starlink 36267

operational
NORAD ID: 67198 Int'l Des: 2025-304 Owner: SPXS Country: US Constellation: starlink
LEOCIRCULAR

About Starlink 36267

Description loading...

Live Position

Loading 3D Globe...

Upcoming Passes

Altitude History

Altitude vs Time

uPlot chart will show altitude changes over time

Two-Line Element Set

1 67198C 25304G 25352.76715278 .00714270 00000+0 98377-3 0 3525
2 67198 69.9983 31.2732 0009087 255.4347 232.4063 16.05061326 10
Epoch: Dec 18, 2025 • Age: 42 hours

Current Status

Altitude 269.9 km
Velocity 7.75 km/s
Sub-Earth Point 51.05°N, 55.87°E
Launch Date Dec 17, 2025
Age 2 days
Type internet

Technical Details

Classification Payload
Mass 575.00 kg
Dry Mass 530.00 kg
Total Mass 575.00 kg
Length 0.30 m
Diameter 4.10 m
Span 29.00 m
Shape Box + pan
Manufacturer SPXS
Bus Type Starlink V2MO
Phase Status In Orbit
Owner/State SPXS/US

Large Constellations

Loading constellations...